User: anonymous   Login
Location: Caltech
(34.1382°N, 118.1253°W)
Time: 10:37:02
(UTC-08:00)
Language:

Iridium 70 - Orbit

View from above orbital plane
View from above orbital plane
View from above satellite
View from above satellite

Ground track
Ground track

The orbit data is extracted from the following two-line orbital elements,

1 25342U 98032A   18052.42039130  .00000133  00000-0  40509-4 0  9995
2 25342  86.3970 120.1521 0002034  95.1320 265.0108 14.34220507 34829
Epoch (UTC): 21 February 2018 10:05:21
Eccentricity: 0.0002034
inclination: 86.3970°
perigee height: 776 km
apogee height: 779 km
right ascension of ascending node: 120.1521°
argument of perigee: 95.1320°
revolutions per day: 14.34220507
mean anomaly at epoch: 265.0108°
orbit number at epoch: 3482

The dashed part of the orbit path shows where the satellite is in the earth's shadow,  

DLR